STARLINK-4171, 52878

Orbit data source: Space-Track

STARLINK-4171, 52878 is a payload satellite owned by SpaceX/Seattle (US) in LEO that was launched on Fri, 17 Jun 2022 UTC via an FALCON 9 launch vehicle from the Air Force Eastern Test Range (AFETR). Payload-class satellites include a variety of spacecraft equipped with specific instruments for various scientific and technological missions. These include communications satellites like Starlink; space stations such as the ISS; scientific satellites like the Hubble; Earth observation satellites from companies like Planet Labs, Umbra, and HawkEye 360; GPS; miniature CubeSats for education and research; and military/defense satellites.

Loading next visibility...
Identifier
52878, 2022-062BA
Orbit
LEO
Country
Flag of USUS
Related business
Manufacturer
SpaceX/Seattle
Mission
Operational Commercial Communications
Bus & Motor
STARLINK, Unknown motor
Mass
297 kg wet, ~275 kg dry
Launch date (UTC)
2022-06-17 (4 years ago)
Launch vehicle
FALCON 9
Launch site
Air Force Eastern Test Range (AFETR)
Object type
Payload
Rocket body
Debris
Shape & HBR
Box + 1 Pan, 10.1 m
Radar Cross Section
13.562 m², Large (>1 m²)

Expand to show TLE details & history
Last TLE update: 19 hours ago

TLE from 19 hours ago
0 STARLINK-4171
1 52878U 22062BA  25349.82210038  .00001275  00000-0  98171-4 0  9994
2 52878  53.2186  30.6179 0001347  87.1784 272.9363 15.08846948193405
Epoch: 2025-12-15T19:43Z
TLE epoch observation values (Epoch: 2025-12-15T19:43:49.472Z)
Latitude
0.00001°
Longitude
9.94662°
Altitude
540.572 km
Speed
7.593 km/s
True Right ascension
02h 02m 28s
True Declination
0° 00' 00"
Sunlit
Object was in full shadow at epoch
Visualization orbit readout
Latitude
Unknown
Longitude
Unknown
Altitude
Unknown
Speed
Unknown
Apparent Right ascension
Unknown
Apparent Declination
Unknown
Sunlit
N/A
Visualization observer readout
Local Sidereal Time
13:40:30
Azimuth
Unknown
Elevation
Unknown
Doppler factor
Unknown
Orbital elements
Apogee altitude
540.899 km
Perigee altitude
539.035 km
Semi-major axis
6,918.104 km
Eccentricity
0.00013
Inclination
53.2186°
RAAN
30.6179°
Arg. of periapsis
87.1784°
True anomaly
272.92088°
Mean anomaly
272.9363°
Eccentric anomaly
272.92859°
Mean motion
3.77192 °/min
Orbital period
95.44 mins
BSTAR
0.000098171
Loading maneuver chart data...
Computing Atmospheric mass density...
Loading historical data...
Loading historical data...
Loading historical data...
Loading historical data...
Loading historical data...
Loading historical data...
Loading historical data...

Documentation

Showing up to 5 results
|